{"data":{"norad_id":39030,"intl_designator":"2012-073A","name":"GOKTURK 2","alt_names":[],"object_type":"PAYLOAD","status":"ACTIVE","operator":null,"country":"TURK","launch_date":"2012-12-18","launch_site_code":"JSC","launch_vehicle":null,"mission":null,"orbit_class":"UNKNOWN","rcs_meters":1.6464,"size_class":null,"mass_kg":null,"dimensions":null,"purposes":["earth_obs"],"wikipedia_slug":null,"has_3d_model":false,"image_url":null,"decayed_at":null,"tle_current":{"epoch":"2026-09-20T03:39:03.642336Z","epoch_age_seconds":44521,"freshness":"FRESH","line1":"1 39030U 12073A   26263.15212549 -.00000090  00000+0 -62465-5 0  9994","line2":"2 39030  97.6788  95.8211 0002046  66.9587 293.1839 14.75614717738513","mean_motion":14.75614717,"eccentricity":0.0002046,"inclination_deg":97.6788,"raan_deg":95.8211,"arg_perigee_deg":66.9587,"mean_anomaly_deg":293.1839,"bstar":-6.2465e-6,"rev_number":73851,"period_min":97.586448780315,"perigee_km":641.76404569106,"apogee_km":644.63717704163,"semimajor_km":7021.3376113663,"source":"CELESTRAK","updated_at":"2026-09-20T09:00:33.894006Z"}}}